GW6749 Weather Reports


time (UTC)temp
C
wind
direction
speed
KPH
gust
KPH
rain 1hr
cm
rain 24hr
cm
rain mn
cm
humidity
%
barometer
mb
20260506143028 17 148 3.2 14.5 0.00 0.00 0.00 81 1008.6
20260506141512 18 246 3.2 12.9 0.00 0.00 0.00 78 1008.4
20260506140026 18 189 3.2 17.7 0.00 0.00 0.00 78 1008.5
20260506134522 18 167 6.4 14.5 0.00 0.00 0.00 78 1008.7
20260506133031 18 196 3.2 16.1 0.00 0.00 0.00 79 1008.5
20260506131525 17 166 4.8 12.9 0.00 0.00 0.00 79 1008.3
20260506130018 17 228 3.2 16.1 0.00 0.00 0.00 79 1008.3
20260506124522 17 160 3.2 9.7 0.00 0.00 0.00 80 1008.4
20260506123024 17 210 1.6 17.7 0.00 0.00 0.00 80 1008.3
20260506121527 17 163 4.8 12.9 0.00 0.00 0.00 80 1008.4
20260506120027 17 177 4.8 16.1 0.00 0.00 0.00 80 1008.2
20260506114531 17 153 3.2 14.5 0.00 0.00 0.00 79 1008.5
20260506113022 17 186 6.4 14.5 0.00 0.00 0.00 79 1008.5
20260506111523 17 220 1.6 16.1 0.00 0.00 0.00 79 1008.2
20260506110032 17 165 4.8 16.1 0.00 0.00 0.00 79 1008.1
20260506104514 17 149 1.6 11.3 0.00 0.00 0.00 79 1008.1
20260506103018 17 172 0.0 12.9 0.00 0.00 0.00 78 1008.2
20260506101524 17 290 4.8 16.1 0.00 0.00 0.00 78 1008.1
20260506100026 17 178 3.2 19.3 0.00 0.00 0.00 77 1008.1
20260506094514 17 155 1.6 12.9 0.00 0.00 0.00 76 1007.9
20260506093020 17 161 4.8 14.5 0.00 0.00 0.00 75 1008.1
20260506091523 17 160 3.2 9.7 0.00 0.00 0.00 74 1008.1
20260506090025 17 144 1.6 9.7 0.00 0.00 0.00 72 1007.8
20260506084526 18 271 3.2 14.5 0.00 0.00 0.00 72 1008.1
20260506083014 18 183 0.0 8.0 0.00 0.00 0.00 71 1008.1
20260506081518 18 137 3.2 11.3 0.00 0.00 0.00 69 1008.3
20260506073027 18 225 0.0 9.7 0.00 0.00 0.00 67 1008.3
20260506071518 19 219 0.0 11.3 0.00 0.00 0.00 66 1008.3
20260506061528 19 304 3.2 14.5 0.00 0.00 0.00 64 1008.8
20260506044529 20 154 3.2 16.1 0.00 0.00 0.00 60 1009.3
20260506043026 20 162 3.2 16.1 0.00 0.00 0.00 58 1009.2
20260506041526 21 159 3.2 11.3 0.00 0.00 0.00 56 1009.2
20260506040026 21 331 4.8 16.1 0.00 0.00 0.00 55 1009.0
20260506034530 21 130 1.6 14.5 0.00 0.00 0.00 54 1009.0
20260506033028 21 227 0.0 11.3 0.00 0.00 0.00 53 1008.9
20260506031531 22 161 1.6 14.5 0.00 0.00 0.00 52 1008.8
20260506030050 22 200 3.2 22.5 0.00 0.00 0.00 51 1008.7
20260506024531 22 70 1.6 14.5 0.00 0.00 0.00 51 1008.8
20260506023030 22 150 1.6 14.5 0.00 0.00 0.00 50 1008.8
20260506021524 22 244 4.8 12.9 0.00 0.00 0.00 49 1008.8
20260506020026 22 169 3.2 16.1 0.00 0.00 0.00 48 1008.7
20260506014527 22 225 4.8 9.7 0.00 0.00 0.00 46 1008.7
20260506013028 23 147 6.4 14.5 0.00 0.00 0.00 45 1008.5
20260506011535 23 196 1.6 9.7 0.00 0.00 0.00 45 1008.4
20260506010020 23 158 1.6 16.1 0.00 0.00 0.00 43 1008.2
20260506004542 23 156 3.2 12.9 0.00 0.00 0.00 44 1008.1
20260506003010 23 159 0.0 12.9 0.00 0.00 0.00 45 1008.0
20260506001509 23 199 3.2 14.5 0.00 0.00 0.00 44 1007.9
20260506000010 23 176 3.2 19.3 0.00 0.00 0.00 44 1007.8
20260505234506 23 211 3.2 16.1 0.00 0.00 0.00 44 1007.7
20260505233010 24 198 0.0 16.1 0.00 0.00 0.00 43 1007.6
20260505231516 24 140 1.6 12.9 0.00 0.00 0.00 42 1007.4
20260505230008 25 349 4.8 14.5 0.00 0.00 0.00 41 1007.3
20260505224512 25 165 6.4 22.5 0.00 0.00 0.00 41 1007.1
20260505223011 25 150 3.2 19.3 0.00 0.00 0.00 40 1006.9
20260505221509 25 146 4.8 19.3 0.00 0.00 0.00 40 1006.8
20260505220012 25 242 6.4 20.9 0.00 0.00 0.00 39 1006.7
20260505214513 26 219 9.7 20.9 0.00 0.00 0.00 37 1006.2
20260505213011 26 84 4.8 20.9 0.00 0.00 0.00 38 1006.3
20260505211514 26 257 6.4 20.9 0.00 0.00 0.00 37 1006.3
20260505210012 27 158 6.4 19.3 0.00 0.00 0.00 36 1006.3
20260505204514 27 200 4.8 25.7 0.00 0.00 0.00 35 1005.8
20260505203024 27 176 4.8 32.2 0.00 0.00 0.00 37 1005.9
20260505201513 27 149 6.4 29.0 0.00 0.00 0.00 36 1006.2
20260505200014 28 164 11.3 25.7 0.00 0.00 0.00 36 1006.4
20260505194516 27 283 8.0 20.9 0.00 0.00 0.00 37 1006.8
20260505193014 27 200 8.0 24.1 0.00 0.00 0.00 38 1006.9
20260505191516 27 247 4.8 25.7 0.00 0.00 0.00 37 1007.0
20260505190032 27 162 9.7 27.4 0.00 0.00 0.00 38 1007.4
20260505184524 27 213 8.0 25.7 0.00 0.00 0.00 38 1007.4
20260505183021 27 149 6.4 30.6 0.00 0.00 0.00 39 1007.5
20260505181519 27 190 11.3 29.0 0.00 0.00 0.00 41 1007.8
20260505180021 27 169 9.7 25.7 0.00 0.00 0.00 43 1008.0
20260505174518 26 154 9.7 20.9 0.00 0.00 0.00 45 1007.8
20260505173018 26 246 8.0 19.3 0.00 0.00 0.00 46 1007.9
20260505171517 26 156 4.8 12.9 0.00 0.00 0.00 49 1007.8
20260505170021 26 246 3.2 11.3 0.00 0.00 0.00 49 1008.2
20260505164520 25 182 6.4 16.1 0.00 0.00 0.00 50 1008.5
20260505163019 25 209 4.8 20.9 0.00 0.00 0.00 51 1008.8
20260505161520 25 117 6.4 14.5 0.00 0.00 0.00 52 1008.9
20260505153024 23 294 4.8 19.3 0.00 0.00 0.00 56 1009.6
20260505151520 23 149 4.8 16.1 0.00 0.00 0.00 59 1009.5